This is the latest recevied weather packets stored in our database for station/object KQ7A. If no packets are shown the sender has not sent any weather packets the latest 10 day(s).
| Time | Temp. | Humidity | Pressure | Rain* | Wind** | Luminosity | Snow |
|---|---|---|---|---|---|---|---|
| 1777818434 | 7.78° C | 89% | 1015.3 hPa | 0 mm | - | 92 W/m² | - |
| 1777818131 | 7.78° C | 90% | 1015.2 hPa | 0 mm | - | 87 W/m² | - |
| 1777817828 | 7.22° C | 90% | 1015.2 hPa | 0 mm | - | 78 W/m² | - |
| 1777817525 | 7.22° C | 90% | 1015.4 hPa | 0 mm | - | 68 W/m² | - |
| 1777817221 | 7.22° C | 90% | 1015.2 hPa | 0 mm | - | 58 W/m² | - |
| 1777816919 | 6.67° C | 90% | 1015.4 hPa | 0 mm | - | 48 W/m² | - |
| 1777816615 | 6.67° C | 90% | 1015.2 hPa | 0 mm | - | 41 W/m² | - |
| 1777816312 | 6.67° C | 90% | 1015.2 hPa | 0 mm | - | 35 W/m² | - |
| 1777816010 | 6.67° C | 90% | 1015.4 hPa | 0 mm | - | 31 W/m² | - |
| 1777815708 | 7.22° C | 90% | 1015.2 hPa | 0 mm | - | 27 W/m² | - |
| 1777815405 | 6.67° C | 90% | 1015.4 hPa | 0 mm | - | 23 W/m² | - |
| 1777815102 | 6.67° C | 90% | 1015.3 hPa | 0 mm | - | 20 W/m² | - |
| 1777814798 | 6.67° C | 91% | 1015.4 hPa | 0 mm | - | 16 W/m² | - |
| 1777814495 | 6.67° C | 91% | 1015.2 hPa | 0 mm | - | 12 W/m² | - |
| 1777814192 | 6.67° C | 91% | 1015.2 hPa | 0 mm | - | 9 W/m² | - |
| 1777813889 | 6.67° C | 90% | 1015 hPa | 0 mm | - | 4 W/m² | - |
| 1777813586 | 6.67° C | 90% | 1015.3 hPa | 0 mm | - | 2 W/m² | - |
| 1777813284 | 7.22° C | 89% | 1015.2 hPa | 0 mm | - | 1 W/m² | - |
| 1777812981 | 7.22° C | 88% | 1015.1 hPa | 0 mm | - | 0 W/m² | - |
| 1777812679 | 7.78° C | 87% | 1015 hPa | 0 mm | - | 0 W/m² | - |
| 1777812375 | 7.78° C | 87% | 1015.1 hPa | 0 mm | - | 0 W/m² | - |
| 1777812074 | 7.78° C | 86% | 1014.8 hPa | 0 mm | - | 0 W/m² | - |
| 1777811771 | 7.78° C | 85% | 1015 hPa | 0 mm | - | 0 W/m² | - |
| 1777811468 | 7.78° C | 85% | 1015.2 hPa | 0 mm | - | 0 W/m² | - |
| 1777811164 | 7.78° C | 87% | 1015.1 hPa | 0 mm | - | 0 W/m² | - |
* Rain latest hour (hover to see other rain measurements)
** Current wind speed in m/s (hover to see current wind gust speed)